OCN8FE LEPA-EDDF

Flight info

Callsign OCN8FE
Flight time 1h 50m
Altitude 34000
Route MEROS DCT LAPIT/N0460F320 DCT CHELY DCT LUMAS DCT MAXIR DCT LUSOL DCT BODRU DCT OKTET DCT IRMAR DCT KINES DCT VANAS DCT MOBLO DCT UBIMA DCT SOSAL DCT KORED DCT BERSU N871 DITON/N0451F350 DCT LADOL/N0450F360 T163 EMPAX EMPAX5B
Aircraft A320/M-SDE3FGHIRWY/LB1

Departure

Time 2026-05-04 14:22
Airport Palma de Mallorca Airport (LEPA)

Arrival

Time 2026-05-04 16:12
Airport Frankfurt Main Airport (EDDF)
Time Latitude Longitude Altitude Speed Heading
2026-05-04 14:10 39.55497 2.73346 42 ft 0 kts 15°
2026-05-04 14:15 39.55499 2.73350 42 ft 0 kts 66°
2026-05-04 14:15 39.55448 2.73445 42 ft 13 kts 87°
2026-05-04 14:16 39.55482 2.73529 42 ft 5 kts 59°
2026-05-04 14:16 39.55512 2.73568 42 ft 6 kts
2026-05-04 14:17 39.55614 2.73501 42 ft 9 kts 337°
2026-05-04 14:17 39.55670 2.73535 42 ft 10 kts 63°
2026-05-04 14:17 39.55756 2.73721 43 ft 14 kts 58°
2026-05-04 14:18 39.55814 2.73841 43 ft 17 kts 59°
2026-05-04 14:18 39.55954 2.74136 43 ft 20 kts 57°
2026-05-04 14:19 39.56142 2.74344 43 ft 4 kts 33°
2026-05-04 14:19 39.56136 2.74339 43 ft 0 kts 34°
2026-05-04 14:19 39.56147 2.74349 43 ft 4 kts 34°
2026-05-04 14:19 39.56186 2.74367 43 ft 7 kts 358°
2026-05-04 14:20 39.56231 2.74313 44 ft 10 kts 282°
2026-05-04 14:20 39.56211 2.74234 43 ft 0 kts 239°
2026-05-04 14:21 39.56146 2.74096 43 ft 52 kts 238°
2026-05-04 14:21 39.55823 2.73423 43 ft 120 kts 239°
2026-05-04 14:21 39.55310 2.72320 300 ft 151 kts 237°
2026-05-04 14:22 39.54792 2.71194 1008 ft 147 kts 237°
2026-05-04 14:22 39.54269 2.70092 1721 ft 146 kts 237°
2026-05-04 14:22 39.53730 2.68983 2334 ft 152 kts 237°
2026-05-04 14:22 39.53148 2.67773 2814 ft 168 kts 237°
2026-05-04 14:23 39.51778 2.64929 3765 ft 207 kts 237°
2026-05-04 14:23 39.51016 2.63349 4634 ft 209 kts 238°
2026-05-04 14:23 39.50267 2.61793 5544 ft 208 kts 236°
2026-05-04 14:24 39.49321 2.60353 6215 ft 220 kts 221°
2026-05-04 14:24 39.47993 2.59233 6729 ft 239 kts 211°
2026-05-04 14:24 39.46482 2.58176 7297 ft 255 kts 210°
2026-05-04 14:24 39.44901 2.57090 8112 ft 260 kts 210°
2026-05-04 14:25 39.43256 2.56096 8938 ft 265 kts 201°
2026-05-04 14:25 39.39572 2.56243 10499 ft 288 kts 157°
2026-05-04 14:25 39.37957 2.57903 10940 ft 314 kts 134°
2026-05-04 14:26 39.36779 2.60415 11339 ft 337 kts 122°
2026-05-04 14:26 39.35531 2.63057 11715 ft 351 kts 127°
2026-05-04 14:26 39.34491 2.65952 12284 ft 366 kts 105°
2026-05-04 14:26 39.34479 2.69248 12977 ft 376 kts 79°
2026-05-04 14:27 39.35228 2.72481 13708 ft 379 kts 73°
2026-05-04 14:27 39.36016 2.75713 14322 ft 384 kts 75°
2026-05-04 14:27 39.36923 2.78999 14870 ft 391 kts 67°
2026-05-04 14:27 39.38077 2.82207 15454 ft 397 kts 64°
2026-05-04 14:28 39.39270 2.85377 16049 ft 401 kts 64°
2026-05-04 14:28 39.40482 2.88639 16622 ft 405 kts 64°
2026-05-04 14:28 39.41686 2.91941 17133 ft 411 kts 64°
2026-05-04 14:28 39.42899 2.95324 17684 ft 415 kts 65°
2026-05-04 14:29 39.45320 3.02165 18748 ft 424 kts 65°
2026-05-04 14:29 39.47778 3.09167 19735 ft 433 kts 65°
2026-05-04 14:30 39.49036 3.12756 20218 ft 437 kts 66°
2026-05-04 14:30 39.50281 3.16322 20682 ft 441 kts 66°
2026-05-04 14:30 39.52820 3.23610 21578 ft 449 kts 66°
2026-05-04 14:31 39.54105 3.27302 22024 ft 453 kts 67°
2026-05-04 14:31 39.56702 3.34791 22886 ft 460 kts 67°
2026-05-04 14:32 39.59338 3.42405 23733 ft 467 kts 67°
2026-05-04 14:32 39.60652 3.46216 24178 ft 470 kts 67°
2026-05-04 14:32 39.61998 3.50117 24607 ft 473 kts 67°
2026-05-04 14:32 39.63342 3.54021 25033 ft 476 kts 67°
2026-05-04 14:33 39.64678 3.57912 25430 ft 479 kts 67°
2026-05-04 14:33 39.66041 3.61876 25831 ft 482 kts 67°
2026-05-04 14:33 39.67392 3.65813 26222 ft 484 kts 68°
2026-05-04 14:33 39.68767 3.69816 26585 ft 487 kts 68°
2026-05-04 14:34 39.70142 3.73839 26939 ft 489 kts 68°
2026-05-04 14:34 39.71516 3.77863 27304 ft 491 kts 68°
2026-05-04 14:34 39.72893 3.81907 27666 ft 493 kts 68°
2026-05-04 14:34 39.74290 3.86004 27985 ft 496 kts 68°
2026-05-04 14:35 39.75688 3.90108 28318 ft 499 kts 68°
2026-05-04 14:35 39.77077 3.94196 28636 ft 501 kts 68°
2026-05-04 14:35 39.78490 3.98367 28975 ft 502 kts 68°
2026-05-04 14:35 39.79884 4.02481 29282 ft 504 kts 68°
2026-05-04 14:36 39.81313 4.06706 29563 ft 507 kts 68°
2026-05-04 14:36 39.82711 4.10846 29865 ft 508 kts 67°
2026-05-04 14:36 39.84390 4.14947 30118 ft 511 kts 55°
2026-05-04 14:36 39.86666 4.18452 30378 ft 511 kts 41°
2026-05-04 14:37 39.89469 4.21234 30640 ft 507 kts 27°
2026-05-04 14:37 39.92631 4.23146 30972 ft 498 kts 13°
2026-05-04 14:37 39.95940 4.24194 31354 ft 490 kts
2026-05-04 14:37 39.99310 4.24938 31718 ft 488 kts
2026-05-04 14:38 40.02640 4.25625 32041 ft 488 kts
2026-05-04 14:38 40.05988 4.26334 32362 ft 488 kts
2026-05-04 14:38 40.09316 4.27069 32640 ft 489 kts
2026-05-04 14:38 40.12704 4.27841 32872 ft 490 kts
2026-05-04 14:39 40.16043 4.28615 33044 ft 493 kts
2026-05-04 14:39 40.19429 4.29408 33251 ft 494 kts
2026-05-04 14:39 40.22782 4.30198 33462 ft 495 kts
2026-05-04 14:40 40.29560 4.31806 33883 ft 497 kts
2026-05-04 14:40 40.32970 4.32612 33947 ft 497 kts
2026-05-04 14:40 40.39782 4.34224 33956 ft 499 kts
2026-05-04 14:41 40.46615 4.35851 33958 ft 500 kts
2026-05-04 14:42 40.60323 4.39119 33956 ft 500 kts
2026-05-04 14:42 40.67200 4.40766 33954 ft 502 kts
2026-05-04 14:43 40.74062 4.42411 33957 ft 502 kts
2026-05-04 14:43 40.80946 4.44070 33955 ft 503 kts
2026-05-04 14:44 40.87816 4.45724 33957 ft 504 kts
2026-05-04 14:44 40.94691 4.47385 33954 ft 504 kts
2026-05-04 14:45 41.01572 4.49058 33950 ft 504 kts
2026-05-04 14:45 41.08457 4.50732 33954 ft 504 kts
2026-05-04 14:46 41.15366 4.52413 33950 ft 504 kts
2026-05-04 14:46 41.22255 4.54095 33950 ft 504 kts
2026-05-04 14:47 41.29116 4.55771 33955 ft 504 kts
2026-05-04 14:47 41.32552 4.56613 34173 ft 503 kts
2026-05-04 14:47 41.35982 4.57453 34431 ft 502 kts
2026-05-04 14:48 41.39416 4.58298 34667 ft 502 kts
2026-05-04 14:48 41.42868 4.59147 34903 ft 500 kts
2026-05-04 14:48 41.46272 4.59986 35269 ft 495 kts
2026-05-04 14:48 41.49598 4.60806 35655 ft 490 kts
2026-05-04 14:49 41.52948 4.61632 36048 ft 485 kts
2026-05-04 14:49 41.56222 4.62442 36482 ft 479 kts
2026-05-04 14:49 41.59484 4.63248 37001 ft 473 kts
2026-05-04 14:49 41.62684 4.64039 37524 ft 467 kts
2026-05-04 14:50 41.65842 4.64863 37945 ft 465 kts
2026-05-04 14:50 41.69013 4.65914 37962 ft 473 kts 10°
2026-05-04 14:50 41.75293 4.68872 37965 ft 487 kts 19°
2026-05-04 14:51 41.81392 4.73010 37975 ft 500 kts 26°
2026-05-04 14:51 41.87389 4.77858 37972 ft 507 kts 27°
2026-05-04 14:52 41.93427 4.82791 37973 ft 510 kts 27°
2026-05-04 14:52 41.99487 4.87711 37976 ft 510 kts 27°
2026-05-04 14:53 42.05519 4.92602 37980 ft 510 kts 27°
2026-05-04 14:53 42.11581 4.97519 37977 ft 510 kts 27°
2026-05-04 14:54 42.17675 5.02476 37986 ft 510 kts 27°
2026-05-04 14:54 42.23725 5.07410 37988 ft 508 kts 27°
2026-05-04 14:55 42.29745 5.12328 37988 ft 508 kts 27°
2026-05-04 14:55 42.35784 5.17271 37988 ft 508 kts 27°
2026-05-04 14:56 42.41780 5.22193 37988 ft 507 kts 27°
2026-05-04 14:56 42.47797 5.27145 37992 ft 507 kts 27°
2026-05-04 14:57 42.53835 5.32120 37994 ft 506 kts 27°
2026-05-04 14:57 42.59838 5.37081 37996 ft 507 kts 27°
2026-05-04 14:58 42.65846 5.42056 37992 ft 512 kts 27°
2026-05-04 14:58 42.71953 5.47124 37995 ft 516 kts 27°
2026-05-04 14:59 42.78059 5.52208 37998 ft 516 kts 27°
2026-05-04 15:00 42.87197 5.59834 37998 ft 515 kts 27°
2026-05-04 15:00 42.93315 5.64956 37995 ft 515 kts 27°
2026-05-04 15:01 43.02447 5.72623 37996 ft 516 kts 28°
2026-05-04 15:01 43.08538 5.77751 38002 ft 515 kts 28°
2026-05-04 15:02 43.14652 5.82910 38004 ft 515 kts 28°
2026-05-04 15:02 43.20748 5.88070 38008 ft 515 kts 28°
2026-05-04 15:03 43.26829 5.93225 38011 ft 517 kts 28°
2026-05-04 15:03 43.32967 5.98325 38011 ft 515 kts 24°
2026-05-04 15:04 43.39440 6.02264 38012 ft 507 kts 13°
2026-05-04 15:04 43.46164 6.04613 38013 ft 498 kts
2026-05-04 15:05 43.53021 6.05553 38013 ft 492 kts 357°
2026-05-04 15:05 43.59831 6.06134 38018 ft 492 kts 357°
2026-05-04 15:06 43.66673 6.06788 38020 ft 493 kts 358°
2026-05-04 15:07 43.76846 6.09124 38023 ft 502 kts
2026-05-04 15:07 43.83524 6.12256 38034 ft 507 kts 18°
2026-05-04 15:08 43.89878 6.16401 38041 ft 509 kts 22°
2026-05-04 15:08 43.96195 6.20785 38042 ft 509 kts 22°
2026-05-04 15:09 44.02539 6.25165 38053 ft 508 kts 22°
2026-05-04 15:09 44.08861 6.29510 38056 ft 507 kts 22°
2026-05-04 15:10 44.18326 6.36023 38068 ft 507 kts 22°
2026-05-04 15:11 44.27798 6.42564 38077 ft 506 kts 22°
2026-05-04 15:11 44.34060 6.46900 38080 ft 506 kts 22°
2026-05-04 15:12 44.40344 6.51262 38074 ft 506 kts 22°
2026-05-04 15:12 44.46619 6.55634 38068 ft 505 kts 22°
2026-05-04 15:13 44.52930 6.60031 38072 ft 506 kts 22°
2026-05-04 15:13 44.59181 6.64402 38073 ft 504 kts 22°
2026-05-04 15:14 44.65453 6.68798 38085 ft 504 kts 23°
2026-05-04 15:14 44.71752 6.73190 38103 ft 503 kts 21°
2026-05-04 15:15 44.78266 6.76545 38106 ft 497 kts 10°
2026-05-04 15:15 44.85016 6.78271 38099 ft 489 kts 360°
2026-05-04 15:16 44.95100 6.78179 38077 ft 483 kts 351°
2026-05-04 15:17 45.05167 6.77423 38085 ft 483 kts 352°
2026-05-04 15:17 45.15242 6.76736 38078 ft 484 kts 352°
2026-05-04 15:18 45.21980 6.76283 38078 ft 485 kts 352°
2026-05-04 15:19 45.32075 6.75603 38075 ft 485 kts 352°
2026-05-04 15:19 45.42145 6.74929 38079 ft 486 kts 352°
2026-05-04 15:20 45.48899 6.74477 38094 ft 486 kts 353°
2026-05-04 15:20 45.55636 6.74021 38086 ft 486 kts 352°
2026-05-04 15:21 45.62373 6.73557 38085 ft 486 kts 353°
2026-05-04 15:22 45.72512 6.72858 38073 ft 488 kts 352°
2026-05-04 15:22 45.82653 6.72159 38072 ft 488 kts 353°
2026-05-04 15:23 45.89420 6.71701 38068 ft 487 kts 353°
2026-05-04 15:23 45.96211 6.71240 38069 ft 489 kts 353°
2026-05-04 15:24 46.09781 6.70913 38066 ft 492 kts
2026-05-04 15:25 46.16582 6.72159 38060 ft 496 kts
2026-05-04 15:26 46.26620 6.75937 38067 ft 499 kts 14°
2026-05-04 15:26 46.36538 6.80222 38061 ft 499 kts 13°
2026-05-04 15:27 46.46514 6.84498 38061 ft 498 kts 16°
2026-05-04 15:28 46.52851 6.88514 38047 ft 502 kts 28°
2026-05-04 15:28 46.55806 6.91227 38051 ft 503 kts 34°
2026-05-04 15:28 46.61046 6.97865 38055 ft 504 kts 47°
2026-05-04 15:29 46.63341 7.01745 38045 ft 504 kts 51°
2026-05-04 15:30 46.78545 7.29534 38043 ft 501 kts 51°
2026-05-04 15:31 46.85070 7.41433 38040 ft 500 kts 51°
2026-05-04 15:32 46.95787 7.61136 38036 ft 492 kts 51°
2026-05-04 15:34 47.06358 7.80715 38043 ft 491 kts 52°
2026-05-04 15:34 47.12665 7.92519 38031 ft 490 kts 54°
2026-05-04 15:35 47.18243 8.05021 38026 ft 490 kts 58°
2026-05-04 15:36 47.23621 8.17736 38017 ft 489 kts 58°
2026-05-04 15:36 47.27461 8.25992 38016 ft 489 kts 50°
2026-05-04 15:37 47.32173 8.33058 37707 ft 483 kts 39°
2026-05-04 15:37 47.34833 8.36042 37406 ft 481 kts 33°
2026-05-04 15:37 47.37658 8.38632 37103 ft 480 kts 27°
2026-05-04 15:38 47.40618 8.40867 36825 ft 480 kts 24°
2026-05-04 15:38 47.43663 8.43004 36556 ft 481 kts 23°
2026-05-04 15:38 47.46678 8.45092 36336 ft 481 kts 23°
2026-05-04 15:38 47.49694 8.47190 36120 ft 482 kts 24°
2026-05-04 15:39 47.52717 8.49311 35899 ft 483 kts 24°
2026-05-04 15:39 47.55764 8.51463 35676 ft 484 kts 24°
2026-05-04 15:39 47.61817 8.55762 35235 ft 485 kts 24°
2026-05-04 15:40 47.64843 8.57920 35037 ft 486 kts 24°
2026-05-04 15:40 47.70954 8.62288 35002 ft 487 kts 24°
2026-05-04 15:41 47.77033 8.66644 34999 ft 488 kts 25°
2026-05-04 15:41 47.83134 8.71027 34994 ft 487 kts 25°
2026-05-04 15:42 47.89227 8.75417 34995 ft 488 kts 25°
2026-05-04 15:42 47.95309 8.79811 35002 ft 488 kts 24°
2026-05-04 15:43 48.01396 8.84219 34996 ft 488 kts 24°
2026-05-04 15:43 48.07492 8.88645 34991 ft 488 kts 24°
2026-05-04 15:44 48.13702 8.92679 34989 ft 486 kts 18°
2026-05-04 15:44 48.20168 8.95476 34987 ft 483 kts
2026-05-04 15:45 48.26791 8.96988 34988 ft 481 kts
2026-05-04 15:45 48.33431 8.97935 34983 ft 480 kts
2026-05-04 15:45 48.36768 8.98409 34473 ft 479 kts
2026-05-04 15:46 48.40090 8.98893 32956 ft 494 kts
2026-05-04 15:46 48.43528 8.99405 31687 ft 499 kts
2026-05-04 15:46 48.46946 8.99928 31035 ft 492 kts
2026-05-04 15:46 48.50325 9.00449 30189 ft 489 kts
2026-05-04 15:47 48.53672 9.00961 29320 ft 486 kts
2026-05-04 15:47 48.57031 9.01476 28556 ft 480 kts
2026-05-04 15:47 48.60303 9.01978 27953 ft 472 kts
2026-05-04 15:47 48.63526 9.02540 27411 ft 464 kts
2026-05-04 15:48 48.66697 9.03253 26880 ft 457 kts
2026-05-04 15:48 48.69800 9.03998 26359 ft 449 kts
2026-05-04 15:48 48.75840 9.05461 25345 ft 436 kts
2026-05-04 15:49 48.78812 9.06176 24841 ft 430 kts
2026-05-04 15:49 48.81738 9.06877 24331 ft 425 kts
2026-05-04 15:49 48.84660 9.07576 23821 ft 420 kts
2026-05-04 15:49 48.87518 9.08251 23327 ft 415 kts
2026-05-04 15:50 48.90379 9.08760 22840 ft 410 kts
2026-05-04 15:50 48.93165 9.09164 22351 ft 406 kts
2026-05-04 15:50 48.95960 9.09550 21857 ft 403 kts
2026-05-04 15:50 48.98736 9.09935 21358 ft 400 kts
2026-05-04 15:51 49.01522 9.10328 20859 ft 397 kts
2026-05-04 15:51 49.04258 9.10716 20369 ft 395 kts
2026-05-04 15:51 49.06976 9.11104 19879 ft 392 kts
2026-05-04 15:51 49.09642 9.11485 19395 ft 390 kts
2026-05-04 15:52 49.12338 9.11870 18901 ft 387 kts
2026-05-04 15:52 49.14999 9.12249 18413 ft 385 kts
2026-05-04 15:52 49.17674 9.12632 17917 ft 382 kts
2026-05-04 15:52 49.20305 9.13008 17431 ft 380 kts
2026-05-04 15:53 49.22946 9.13385 16940 ft 378 kts
2026-05-04 15:53 49.25566 9.13761 16447 ft 376 kts
2026-05-04 15:53 49.28150 9.14233 15955 ft 375 kts
2026-05-04 15:53 49.30685 9.14962 15451 ft 374 kts 12°
2026-05-04 15:54 49.33221 9.15839 14942 ft 373 kts 12°
2026-05-04 15:54 49.35741 9.16741 14432 ft 372 kts 13°
2026-05-04 15:54 49.38258 9.17646 13919 ft 370 kts 13°
2026-05-04 15:54 49.40765 9.18543 13409 ft 368 kts 13°
2026-05-04 15:55 49.43241 9.19427 12898 ft 366 kts 13°
2026-05-04 15:55 49.45687 9.20299 12394 ft 364 kts 13°
2026-05-04 15:55 49.48161 9.21179 11886 ft 362 kts 13°
2026-05-04 15:55 49.50600 9.22047 11382 ft 359 kts 13°
2026-05-04 15:56 49.53015 9.22908 10883 ft 356 kts 13°
2026-05-04 15:56 49.55399 9.23758 10782 ft 352 kts 13°
2026-05-04 15:56 49.57779 9.24608 10797 ft 353 kts 13°
2026-05-04 15:56 49.60142 9.25453 10815 ft 353 kts 13°
2026-05-04 15:57 49.62532 9.26309 10828 ft 353 kts 13°
2026-05-04 15:57 49.64923 9.27166 10831 ft 353 kts 13°
2026-05-04 15:57 49.67305 9.28019 10585 ft 353 kts 13°
2026-05-04 15:57 49.69675 9.28869 10162 ft 347 kts 12°
2026-05-04 15:58 49.71984 9.29696 9945 ft 334 kts 12°
2026-05-04 15:58 49.74193 9.30493 9934 ft 316 kts 12°
2026-05-04 15:58 49.76283 9.31248 9932 ft 304 kts 13°
2026-05-04 15:58 49.78330 9.31985 9938 ft 304 kts 13°
2026-05-04 15:59 49.80391 9.32730 9939 ft 304 kts 12°
2026-05-04 15:59 49.82464 9.33258 9932 ft 302 kts 358°
2026-05-04 15:59 49.84510 9.32658 9937 ft 299 kts 335°
2026-05-04 15:59 49.86255 9.30942 9937 ft 295 kts 313°
2026-05-04 16:00 49.87456 9.28471 9929 ft 290 kts 292°
2026-05-04 16:00 49.88124 9.25547 9889 ft 288 kts 283°
2026-05-04 16:00 49.88662 9.22562 9621 ft 286 kts 282°
2026-05-04 16:00 49.89194 9.19586 9346 ft 285 kts 283°
2026-05-04 16:01 49.89731 9.16653 9074 ft 284 kts 283°
2026-05-04 16:01 49.90276 9.13728 8802 ft 283 kts 284°
2026-05-04 16:01 49.90824 9.10815 8529 ft 282 kts 284°
2026-05-04 16:01 49.91376 9.07901 8258 ft 281 kts 284°
2026-05-04 16:02 49.91924 9.05002 7984 ft 280 kts 284°
2026-05-04 16:02 49.92471 9.02114 7712 ft 278 kts 284°
2026-05-04 16:02 49.93601 8.96424 7176 ft 277 kts 293°
2026-05-04 16:03 49.94695 8.93961 6970 ft 278 kts 314°
2026-05-04 16:03 49.96255 8.92226 6830 ft 280 kts 334°
2026-05-04 16:03 49.98122 8.91394 6674 ft 280 kts 354°
2026-05-04 16:03 50.00062 8.91489 6554 ft 280 kts 11°
2026-05-04 16:04 50.01877 8.92568 6434 ft 280 kts 32°
2026-05-04 16:04 50.04313 8.97090 6178 ft 278 kts 69°
2026-05-04 16:04 50.05018 8.99861 5931 ft 277 kts 63°
2026-05-04 16:05 50.06238 9.02144 5627 ft 273 kts 35°
2026-05-04 16:05 50.07960 9.03249 5330 ft 267 kts
2026-05-04 16:05 50.11266 9.01465 4753 ft 256 kts 318°
2026-05-04 16:06 50.12554 8.99601 4458 ft 247 kts 315°
2026-05-04 16:06 50.13900 8.93815 3947 ft 211 kts 242°
2026-05-04 16:07 50.12789 8.91353 3955 ft 207 kts 230°
2026-05-04 16:07 50.10444 8.85809 3835 ft 208 kts 248°
2026-05-04 16:08 50.09957 8.83678 3583 ft 207 kts 251°
2026-05-04 16:08 50.08538 8.77472 2783 ft 196 kts 249°
2026-05-04 16:09 50.07619 8.73720 2351 ft 180 kts 249°
2026-05-04 16:09 50.06815 8.70381 1894 ft 152 kts 249°
2026-05-04 16:10 50.06152 8.67549 1449 ft 130 kts 250°
2026-05-04 16:11 50.05202 8.63613 991 ft 128 kts 248°
2026-05-04 16:11 50.04881 8.62303 852 ft 128 kts 249°
2026-05-04 16:12 50.03946 8.58392 383 ft 131 kts 249°
2026-05-04 16:12 50.03447 8.55983 355 ft 14 kts 279°
2026-05-04 16:13 50.03462 8.55857 355 ft 6 kts 281°
2026-05-04 16:13 50.03479 8.55709 355 ft 7 kts 279°
2026-05-04 16:14 50.03495 8.55508 355 ft 10 kts 266°
2026-05-04 16:14 50.03443 8.55259 355 ft 13 kts 249°
2026-05-04 16:15 50.03336 8.54813 355 ft 15 kts 247°
2026-05-04 16:16 50.03295 8.54496 355 ft 14 kts 316°
2026-05-04 16:16 50.03501 8.54375 355 ft 14 kts 340°
2026-05-04 16:17 50.03681 8.54397 355 ft 14 kts 71°
2026-05-04 16:18 50.03795 8.54879 355 ft 17 kts 70°
2026-05-04 16:18 50.03838 8.55053 355 ft 17 kts 69°
2026-05-04 16:19 50.03953 8.55530 355 ft 14 kts 70°
2026-05-04 16:19 50.04025 8.55837 355 ft 10 kts 70°
2026-05-04 16:20 50.04036 8.55884 355 ft 0 kts 69°
2026-05-04 16:20 50.04037 8.55887 355 ft 1 kts 69°
2026-05-04 16:21 50.04173 8.55931 355 ft 14 kts 339°
2026-05-04 16:22 50.04144 8.55813 355 ft 7 kts 159°
2026-05-04 16:22 50.04117 8.55828 355 ft 0 kts 160°